Redmond, OR

1:03 PM PST on December 06, 2019 (GMT -0800)
Roberts Field Airport

Weather History for KRDM - August, 2019

Change the Weather History Date:

Tuesday, August 20, 2019

  Actual Average Record
Temperature  
Mean Temperature 74 °F 64 °F  
Max Temperature 95 °F 84 °F 100 °F (2009)
Min Temperature 53 °F 45 °F 35 °F (1974)
Degree Days  
Heating Degree Days 0 3  
Month to date heating degree days 8 41  
Since 1 June heating degree days 190 327  
Since 1 July heating degree days 41 110  
Cooling Degree Days 9 2  
Month to date cooling degree days 109 63  
Year to date cooling degree days 215 189  
Since 1 June cooling degree days 215 184  
Growing Degree Days 24 (Base 50)    
Moisture  
Dew Point 47 °F    
Average Humidity 44    
Maximum Humidity 71    
Minimum Humidity 17    
Precipitation  
Precipitation 0.00 in 0.02 in 0.72 in (1993)
Month to date precipitation T 0.32  
Year to date precipitation 7.46 5.55  
Sea Level Pressure  
Sea Level Pressure 29.92 in    
Wind  
Wind Speed 7 mph (WSW)    
Max Wind Speed 23 mph    
Max Gust Speed 29 mph    
Visibility 10 miles    
Events      
T = Trace of Precipitation, MM = Missing Value Source: NWS Daily Summary

Daily Weather History Graph

Daily Weather History Graph

Search for Another Location

Airport or City:

Astronomy

Aug. 20, 2019 Rise Set
Actual Time 6:13 AM PDT 8:01 PM PDT
Civil Twilight 5:42 AM PDT 8:32 PM PDT
Nautical Twilight 5:04 AM PDT 9:10 PM PDT
Astronomical Twilight 4:23 AM PDT 9:50 PM PDT
Moon 10:41 PM PDT (8/20) 11:06 AM PDT (8/20)
Length of Visible Light 14h 49m
Length of Day
13h 48m
Waning Gibbous, 77% of the Moon is Illuminated
Aug 20
Waning Gibbous
Aug 23
Last Quarter
Aug 30
New
Sep 5
First Quarter
Sep 13
Full

Hourly Weather History & Observations

Time (PDT) Temp. Dew Point Humidity Pressure Visibility Wind Dir Wind Speed Gust Speed Precip Events Conditions
12:56 AM 63.0 °F 48.9 °F 60% 29.93 in 10.0 mi Calm Calm - N/A   Clear
1:56 AM 57.9 °F 46.9 °F 67% 29.93 in 10.0 mi South 3.5 mph - N/A   Clear
2:56 AM 57.0 °F 46.0 °F 67% 29.93 in 10.0 mi SSW 3.5 mph - N/A   Clear
3:56 AM 55.0 °F 45.0 °F 69% 29.94 in 10.0 mi South 5.8 mph - N/A   Clear
4:56 AM 54.0 °F 45.0 °F 72% 29.93 in 10.0 mi South 4.6 mph - N/A   Clear
5:56 AM 54.0 °F 45.0 °F 72% 29.94 in 10.0 mi SE 4.6 mph - N/A   Clear
6:56 AM 55.0 °F 45.0 °F 69% 29.95 in 10.0 mi East 3.5 mph - N/A   Clear
7:56 AM 64.9 °F 46.9 °F 52% 29.95 in 10.0 mi SE 5.8 mph - N/A   Clear
8:56 AM 72.0 °F 46.9 °F 41% 29.94 in 10.0 mi South 3.5 mph - N/A   Clear
9:56 AM 77.0 °F 46.9 °F 34% 29.93 in 10.0 mi Calm Calm - N/A   Clear
10:56 AM 82.0 °F 46.9 °F 29% 29.92 in 10.0 mi Variable 3.5 mph - N/A   Clear
11:56 AM 87.1 °F 45.0 °F 23% 29.90 in 10.0 mi Variable 4.6 mph - N/A   Clear
12:56 PM 88.0 °F 44.1 °F 22% 29.89 in 10.0 mi Variable 4.6 mph - N/A   Clear
1:56 PM 93.0 °F 43.0 °F 18% 29.87 in 10.0 mi Variable 5.8 mph - N/A   Clear
2:56 PM 93.9 °F 43.0 °F 17% 29.86 in 10.0 mi NNE 5.8 mph 16.1 mph N/A   Clear
3:56 PM 91.9 °F 43.0 °F 18% 29.86 in 10.0 mi Variable 4.6 mph - N/A   Clear
4:56 PM 91.0 °F 45.0 °F 20% 29.85 in 10.0 mi NNW 15.0 mph - N/A   Clear
5:56 PM 88.0 °F 50.0 °F 27% 29.87 in 10.0 mi WNW 20.7 mph 24.2 mph N/A   Clear
6:56 PM 82.0 °F 52.0 °F 35% 29.89 in 10.0 mi WNW 16.1 mph - N/A   Clear
7:56 PM 78.1 °F 53.1 °F 42% 29.91 in 10.0 mi NW 11.5 mph - N/A   Clear
8:56 PM 75.9 °F 52.0 °F 43% 29.94 in 10.0 mi WNW 13.8 mph - N/A   Clear
9:56 PM 72.0 °F 52.0 °F 49% 29.96 in 10.0 mi NNW 4.6 mph - N/A   Clear
10:56 PM 71.1 °F 52.0 °F 51% 29.97 in 10.0 mi WNW 5.8 mph - N/A   Clear
11:56 PM 68.0 °F 51.1 °F 55% 29.97 in 10.0 mi WSW 3.5 mph - N/A   Clear